www.pogodaiklimat.ru

Погода и климат >> Архив погоды >> Япония >> Нобеока


ПОГОДА в Нобеоке

  • Прогноз погоды в Нобеоке
  • Монитор погоды в Нобеоке

АРХИВ ПОГОДЫ в Нобеоке

Время (UTC), дата Ветер
(напр.,м/с)
 
Видим.   Явления Облачность Т
(С)
Тd
(С)
f
(%)
Тe
(С)
Тes
(С)
Комфортность P
(гПа)
Po
(гПа)
Тmin
(С)
Tmax
(С)
R
(мм)
R24
(мм)
S
(см)
10 10.08 В 3 20 км н/о +27.6 +25.8 90 +41 +41 опасность
перегрева
1007.1 1004.7
11 10.08 В 2 20 км н/о +27.3 +25.7 91 +40 +40 очень
душно
1007.6 1005.2
12 10.08 В 2 18 км н/о +27.1 +25.7 92 +40 +40 очень
душно
1008.2 1005.8 +30.0
13 10.08 В 2 19 км н/о +27.1 +25.9 93 +40 +40 очень
душно
1008.3 1005.9
14 10.08 В 2 19 км н/о +27.2 +26.0 93 +41 +41 опасность
перегрева
1008.1 1005.7
15 10.08 СВ 2 19 км н/о +26.9 +25.9 94 +40 +40 очень
душно
1007.8 1005.4
16 10.08 В 2 20 км н/о +27.0 +25.8 93 +40 +40 очень
душно
1007.0 1004.6
17 10.08 СВ 2 20 км н/о +26.9 +25.5 92 +39 +39 очень
душно
1006.8 1004.4
18 10.08 СВ 3 20 км н/о +26.7 +25.7 94 +39 +39 очень
душно
1006.5 1004.1
19 10.08 СВ 2 1400 м дымка н/о +26.7 +25.7 94 +39 +39 очень
душно
1006.1 1003.7
20 10.08 В 3 12 км в посл. час туман н/о +26.7 +25.7 94 +39 +39 очень
душно
1006.0 1003.6
21 10.08 В 3 9000 м дымка {туман} н/о +26.7 +25.8 95 +40 +40 очень
душно
1006.3 1003.9
22 10.08 В 4 15 км в посл. час дождь н/о +27.2 +25.8 92 +40 +40 очень
душно
1006.5 1004.1
23 10.08 В 4 10 км слаб. дождь н/о +26.9 +25.7 93 +40 +40 очень
душно
1006.3 1003.9
00 11.08 СВ 2 15 км слаб. дождь {туман} н/о +27.9 +26.1 90 +42 +42 опасность
перегрева
1006.4 1004.0 +26.6 0.0
01 11.08 В 4 14 км в посл. час дождь н/о +28.6 +25.8 85 +43 +43 опасность
перегрева
1006.4 1004.0
02 11.08 В 4 15 км н/о +27.5 +25.3 88 +40 +40 очень
душно
1006.8 1004.4
03 11.08 В 4 16 км {дождь} н/о +28.0 +25.8 88 +42 +42 опасность
перегрева
1006.4 1004.0
04 11.08 СВ 2 1400 м сильн. дождь н/о +26.1 +25.8 98 +38 +38 очень
душно
1005.8 1003.4
05 11.08 В 3 11 км в посл. час дождь н/о +27.4 +26.4 94 +42 +42 опасность
перегрева
1005.7 1003.3
06 11.08 В 3 15 км в посл. час дождь н/о +27.6 +26.4 93 +42 +42 опасность
перегрева
1005.5 1003.1 10
07 11.08 В 4 13 км н/о +27.9 +26.5 92 +43 +43 опасность
перегрева
1005.0 1002.6
08 11.08 В 2 16 км н/о +27.8 +25.6 88 +41 +41 опасность
перегрева
1004.8 1002.4
09 11.08 В 2 14 км н/о +27.6 +25.8 90 +41 +41 опасность
перегрева
1004.9 1002.5
10 11.08 В 4 11 км н/о +27.3 +25.9 92 +41 +41 опасность
перегрева
1005.5 1003.1
11 11.08 В 2 10 км н/о +27.3 +26.1 93 +41 +41 опасность
перегрева
1006.1 1003.7
12 11.08 В 2 7000 м дымка н/о +27.4 +26.2 93 +41 +41 опасность
перегрева
1006.3 1003.9 +28.9 10
13 11.08 В 3 9000 м дымка н/о +27.1 +26.2 95 +41 +41 опасность
перегрева
1006.6 1004.2
14 11.08 В 2 14 км н/о +27.0 +26.1 95 +41 +41 опасность
перегрева
1006.4 1004.0
15 11.08 В 3 9000 м в посл. час дождь н/о +27.1 +26.2 95 +41 +41 опасность
перегрева
1005.9 1003.5
16 11.08 В 2 12 км н/о +27.1 +26.4 96 +41 +41 опасность
перегрева
1005.3 1002.9
17 11.08 В 2 4900 м слаб. дождь н/о +26.7 +26.0 96 +40 +40 очень
душно
1004.5 1002.1
18 11.08 В 2 14 км в посл. час дождь н/о +26.8 +26.3 97 +41 +41 опасность
перегрева
1004.1 1001.7 1
19 11.08 СВ 2 17 км н/о +26.8 +26.1 96 +40 +40 очень
душно
1004.1 1001.7
20 11.08 СВ 2 18 км н/о +27.0 +26.0 94 +40 +40 очень
душно
1004.3 1001.9
21 11.08 В 4 6000 м слаб. дождь н/о +25.6 +25.1 97 +37 +37 очень
душно
1004.6 1002.2
22 11.08 штиль 0 18 км слаб. дождь н/о +25.9 +25.7 99 +38 +38 очень
душно
1004.8 1002.4
23 11.08 В 4 2900 м слаб. дождь н/о +25.9 +25.4 97 +38 +38 очень
душно
1005.0 1002.6
00 12.08 СВ 3 4200 м слаб. дождь н/о +26.7 +25.7 94 +39 +39 очень
душно
1004.8 1002.4 +25.4 5
01 12.08 В 2 14 км в посл. час дождь н/о +29.2 +26.4 85 +45 +45 опасность
перегрева
1004.8 1002.4
02 12.08 В 3 17 км н/о +29.5 +26.1 82 +45 +45 опасность
перегрева
1004.9 1002.5
03 12.08 В 5 20 км слаб. дождь н/о +29.9 +25.4 77 +44 +44 опасность
перегрева
1004.5 1002.2
04 12.08 В 3 17 км в посл. час дождь н/о +29.7 +25.9 80 +44 +44 опасность
перегрева
1004.3 1002.0
05 12.08 В 3 20 км н/о +30.4 +25.5 75 +45 +45 опасность
перегрева
1003.9 1001.6
06 12.08 В 4 19 км в посл. час дождь н/о +30.3 +25.8 77 +45 +45 опасность
перегрева
1003.5 1001.2 0.0
07 12.08 В 3 20 км н/о +30.5 +25.6 75 +45 +45 опасность
перегрева
1003.1 1000.8
08 12.08 В 2 18 км в посл. час дождь н/о +29.8 +25.1 76 +43 +43 опасность
перегрева
1003.1 1000.8
09 12.08 СВ 2 20 км {дождь} н/о +29.5 +25.3 78 +43 +43 опасность
перегрева
1003.1 1000.8
10 12.08 СВ 2 20 км в посл. час дождь н/о +29.0 +25.0 79 +42 +42 опасность
перегрева
1003.4 1001.0
11 12.08 СВ 2 17 км слаб. дождь н/о +28.5 +25.3 83 +42 +42 опасность
перегрева
1003.7 1001.3
12 12.08 СВ 2 20 км в посл. час дождь н/о +28.4 +24.8 81 +41 +41 опасность
перегрева
1004.0 1001.6 +31.1 0.0
13 12.08 З 1 20 км в посл. час дождь н/о +28.0 +25.0 84 +40 +40 очень
душно
1004.1 1001.7
14 12.08 ЮЗ 1 20 км н/о +27.2 +25.8 92 +40 +40 очень
душно
1003.9 1001.5
15 12.08 ЮЗ 2 19 км {дождь} н/о +26.7 +25.8 95 +40 +40 очень
душно
1003.4 1001.0
16 12.08 З 3 20 км н/о +26.6 +25.6 94 +39 +39 очень
душно
1002.7 1000.3
17 12.08 З 3 20 км н/о +26.7 +25.5 93 +39 +39 очень
душно
1002.2 999.8
18 12.08 ЮЗ 2 20 км {дождь} н/о +26.4 +25.4 94 +38 +38 очень
душно
1001.5 999.1 0.0
19 12.08 ЮЗ 2 20 км в посл. час дождь н/о +26.3 +25.4 95 +38 +38 очень
душно
1001.2 998.8
20 12.08 ЮЗ 2 20 км в посл. час дождь н/о +26.2 +25.3 95 +38 +38 очень
душно
1001.0 998.6
21 12.08 З 2 15 км слаб. дождь н/о +25.9 +25.6 98 +38 +38 очень
душно
1001.5 999.1
22 12.08 ЮЗ 2 8000 м в посл. час дождь н/о +26.0 +25.5 97 +38 +38 очень
душно
1001.3 998.9
23 12.08 ЮЗ 1 20 км н/о +28.0 +25.0 84 +40 +40 очень
душно
1000.9 998.5
00 13.08 С 1 20 км {дождь} н/о +30.8 +24.0 67 +42 +42 опасность
перегрева
1000.4 998.1 +25.7 0.0
01 13.08 С 2 20 км н/о +30.5 +24.2 69 +42 +42 опасность
перегрева
1000.6 998.3
02 13.08 СВ 3 20 км н/о +31.4 +24.8 68 +45 +45 опасность
перегрева
1000.2 997.9
03 13.08 С 4 20 км н/о +32.0 +24.9 66 +45 +45 опасность
перегрева
999.6 997.3
04 13.08 СВ 4 11 км слаб. дождь н/о +29.1 +25.1 79 +42 +42 опасность
перегрева
999.9 997.6
05 13.08 СВ 1 14 км слаб. дождь н/о +28.6 +26.8 90 +45 +45 опасность
перегрева
999.9 997.6
06 13.08 С 2 20 км в посл. час дождь н/о +30.4 +24.8 72 +43 +43 опасность
перегрева
999.1 996.8 0.5
07 13.08 С 2 20 км н/о +30.5 +24.6 71 +43 +43 опасность
перегрева
998.6 996.3
08 13.08 СВ 1 20 км н/о +30.4 +25.5 75 +45 +45 опасность
перегрева
998.6 996.3
09 13.08 В 2 20 км н/о +29.8 +25.3 77 +44 +44 опасность
перегрева
998.8 996.5
10 13.08 С 1 20 км н/о +29.3 +25.5 80 +43 +43 опасность
перегрева
999.2 996.9
11 13.08 С 1 20 км н/о +28.9 +25.7 83 +43 +43 опасность
перегрева
999.2 996.9
12 13.08 З 1 20 км н/о +28.6 +25.8 85 +43 +43 опасность
перегрева
999.6 997.3 +32.8 0.5
13 13.08 З 1 20 км н/о +28.7 +25.1 81 +42 +42 опасность
перегрева
999.2 996.9
14 13.08 ЮЗ 1 20 км н/о +28.1 +25.1 84 +41 +41 опасность
перегрева
998.8 996.5
15 13.08 ЮЗ 1 20 км в посл. час дождь н/о +28.0 +25.0 84 +40 +40 очень
душно
998.3 996.0
17 13.08 В 2 20 км слаб. дождь н/о +28.0 +24.6 82 +40 +40 очень
душно
996.7 994.4
18 13.08 СВ 2 20 км в посл. час дождь н/о +27.6 +24.3 82 +39 +39 очень
душно
996.0 993.7 0.5
19 13.08 СВ 3 20 км слаб. дождь н/о +28.4 +24.0 77 +39 +39 очень
душно
995.7 993.4
21 13.08 СВ 2 5000 м слаб. дождь н/о +26.3 +24.3 89 +37 +37 очень
душно
995.2 992.8
22 13.08 В 3 6000 м слаб. дождь н/о +25.7 +24.8 95 +36 +36 очень
душно
995.2 992.8
23 13.08 СВ 2 13 км слаб. дождь н/о +26.8 +24.5 87 +38 +38 очень
душно
994.5 992.2
00 14.08 С 4 20 км слаб. дождь н/о +27.8 +24.0 80 +39 +39 очень
душно
993.6 991.3 +25.5 3
01 14.08 С 4 11 км слаб. дождь н/о +28.0 +24.6 82 +40 +40 очень
душно
992.9 990.6
02 14.08 С 6 14 км слаб. дождь н/о +28.0 +24.4 81 +39 +39 очень
душно
992.0 989.7
03 14.08 С 4 8000 м слаб. дождь н/о +27.4 +24.5 84 +39 +39 очень
душно
990.8 988.5
04 14.08 С 5 19 км слаб. дождь н/о +27.6 +24.9 85 +39 +39 очень
душно
989.8 987.5
05 14.08 С 3 7000 м слаб. дождь н/о +27.2 +24.9 87 +39 +39 очень
душно
989.2 986.9
06 14.08 С 4 20 км слаб. дождь н/о +26.9 +25.1 90 +39 +39 очень
душно
988.9 986.6 9
07 14.08 С 4 11 км слаб. дождь н/о +28.0 +25.0 84 +40 +40 очень
душно
987.2 984.9
08 14.08 СВ 4 5000 м дождь н/о +26.7 +25.3 92 +39 +39 очень
душно
987.2 984.9
09 14.08 СВ 5 8000 м слаб. дождь н/о +27.0 +25.6 92 +40 +40 очень
душно
986.4 984.1
10 14.08 СВ 5 4300 м дождь н/о +26.7 +25.7 94 +39 +39 очень
душно
985.8 983.5
11 14.08 СВ 6 6000 м слаб. дождь н/о +26.9 +25.9 94 +40 +40 очень
душно
986.4 984.1
12 14.08 СВ 7 9000 м слаб. дождь н/о +27.9 +25.9 89 +42 +42 опасность
перегрева
986.1 983.8 +28.9 28
13 14.08 СВ 6 8000 м слаб. дождь н/о +28.0 +25.6 87 +41 +41 опасность
перегрева
985.2 982.9
14 14.08 СВ 4 4600 м дождь н/о +27.3 +25.0 87 +39 +39 очень
душно
982.0 979.7
15 14.08 С 4 2700 м сильн. дождь н/о +26.8 +25.0 90 +39 +39 очень
душно
979.9 977.6
16 14.08 СВ 2 4800 м дождь н/о +26.2 +25.2 94 +38 +38 очень
душно
979.2 976.9
17 14.08 СВ 7 2100 м сильн. дождь н/о +26.9 +26.4 97 +41 +41 опасность
перегрева
979.0 976.7
18 14.08 СВ 3 3200 м дождь н/о +26.4 +25.9 97 +39 +39 очень
душно
978.2 975.9 63
19 14.08 СЗ 2 6000 м слаб. дождь н/о +26.5 +25.5 94 +39 +39 очень
душно
977.8 975.5
21 14.08 З 2 3600 м слаб. дождь н/о +25.4 +25.2 99 +37 +37 очень
душно
978.3 976.0
22 14.08 ЮЗ 3 7000 м слаб. дождь н/о +25.5 +25.5 100 +37 +37 очень
душно
978.4 976.1
23 14.08 З 2 20 км в посл. час дождь н/о +25.9 +25.7 99 +38 +38 очень
душно
978.9 976.6
00 15.08 З 1 20 км {дождь} н/о +27.4 +26.9 97 +43 +43 опасность
перегрева
979.3 977.0 +25.3 69
01 15.08 ЮЗ 2 20 км н/о +28.6 +26.0 86 +43 +43 опасность
перегрева
979.8 977.5
02 15.08 З 4 20 км слаб. дождь н/о +29.8 +26.2 81 +45 +45 опасность
перегрева
980.0 977.7
03 15.08 З 4 20 км слаб. дождь н/о +29.9 +25.9 79 +45 +45 опасность
перегрева
980.4 978.1
04 15.08 ЮЗ 3 20 км слаб. дождь н/о +29.6 +26.0 81 +44 +44 опасность
перегрева
981.4 979.1
05 15.08 ЮЗ 2 20 км слаб. дождь н/о +27.9 +27.2 96 +44 +44 опасность
перегрева
982.3 980.0
06 15.08 ЮЗ 3 19 км слаб. дождь н/о +28.3 +27.1 93 +45 +45 опасность
перегрева
983.0 980.7 0.5
07 15.08 ЮЗ 3 20 км в посл. час дождь н/о +28.2 +26.4 90 +43 +43 опасность
перегрева
984.1 981.8
08 15.08 ЮЗ 2 20 км слаб. дождь н/о +28.0 +26.8 93 +44 +44 опасность
перегрева
985.3 983.0
09 15.08 ЮЗ 1 20 км в посл. час дождь н/о +28.4 +25.6 85 +42 +42 опасность
перегрева
986.4 984.1
10 15.08 СВ 1 20 км слаб. дождь н/о +27.1 +26.2 95 +41 +41 опасность
перегрева
987.7 985.4
11 15.08 СЗ 1 20 км слаб. дождь н/о +26.7 +26.4 98 +41 +41 опасность
перегрева
989.4 987.1
12 15.08 СВ 1 20 км в посл. час дождь н/о +26.5 +26.2 98 +40 +40 очень
душно
990.6 988.3 +30.2 0.5
13 15.08 СВ 1 20 км н/о +26.3 +25.8 97 +39 +39 очень
душно
991.2 988.9
14 15.08 СЗ 2 18 км н/о +25.9 +25.2 96 +37 +37 очень
душно
992.2 989.8
15 15.08 Ю 1 16 км н/о +25.8 +25.1 96 +37 +37 очень
душно
992.9 990.5
16 15.08 З 1 12 км н/о +25.1 +24.6 97 +35 +35 очень
душно
993.2 990.8
17 15.08 С 1 17 км н/о +25.9 +24.5 92 +36 +36 очень
душно
993.7 991.3
18 15.08 З 1 10 км н/о +24.7 +24.2 97 +34 +34 очень
душно
994.7 992.3
19 15.08 С 1 9000 м дымка н/о +24.3 +24.0 98 +33 +33 очень
душно
995.6 993.2
20 15.08 З 1 9000 м дымка н/о +24.2 +24.0 99 +33 +33 очень
душно
996.1 993.7
21 15.08 З 2 9000 м дымка н/о +23.9 +23.7 99 +32 +32 очень
душно
997.1 994.7
22 15.08 З 1 13 км н/о +24.5 +24.0 97 +34 +34 очень
душно
997.9 995.5
23 15.08 З 1 19 км н/о +27.2 +24.9 87 +39 +39 очень
душно
998.7 996.3
00 16.08 Ю 1 20 км н/о +29.0 +24.3 76 +41 +41 опасность
перегрева
998.9 996.6 +23.9
01 16.08 ЮВ 2 20 км н/о +30.7 +22.3 61 +40 +40 очень
душно
998.9 996.6
02 16.08 Ю 3 9000 м дым н/о +31.7 +23.5 62 +43 +43 опасность
перегрева
999.0 996.7
03 16.08 ЮВ 3 20 км н/о +32.0 +22.7 58 +42 +42 опасность
перегрева
998.8 996.5
04 16.08 ЮВ 3 20 км н/о +32.5 +24.3 62 +45 +45 опасность
перегрева
998.5 996.2
05 16.08 ЮВ 3 18 км н/о +32.9 +25.2 64 +47 +47 опасность
перегрева
998.6 996.3
06 16.08 СВ 3 19 км н/о +32.1 +25.9 70 +48 +48 опасность
перегрева
998.4 996.1
07 16.08 В 3 20 км н/о +32.1 +25.9 70 +48 +48 опасность
перегрева
998.2 995.9
08 16.08 В 3 16 км н/о +31.8 +25.7 70 +47 +47 опасность
перегрева
998.5 996.2
09 16.08 С 1 17 км н/о +30.9 +25.3 72 +45 +45 опасность
перегрева
999.2 996.9
11 16.08 З 3 20 км н/о +27.9 +23.9 79 +39 +39 очень
душно
1001.1 998.7
12 16.08 З 2 20 км н/о +27.0 +23.1 79 +36 +36 очень
душно
1001.4 999.0 +33.4
13 16.08 З 2 20 км н/о +26.5 +22.1 77 +34 +34 очень
душно
1001.9 999.5
15 16.08 З 1 20 км н/о +25.2 +21.9 82 +32 +32 очень
душно
1002.6 1000.2
16 16.08 З 2 19 км н/о +24.4 +21.9 86 +31 +31 очень
душно
1002.7 1000.3
17 16.08 З 2 18 км н/о +24.3 +21.8 86 +31 +31 очень
душно
1002.8 1000.4
18 16.08 З 3 17 км н/о +23.8 +21.7 88 +30 +30 очень
душно
1003.1 1000.7
19 16.08 З 3 18 км н/о +23.7 +21.8 89 +30 +30 очень
душно
1003.2 1000.8
20 16.08 З 2 17 км н/о +23.7 +21.4 87 +30 +30 очень
душно
1003.5 1001.1
21 16.08 З 3 16 км н/о +23.5 +21.6 89 +30 +30 очень
душно
1004.1 1001.7
22 16.08 С 2 17 км н/о +24.6 +21.5 83 +31 +31 очень
душно
1004.4 1002.0
23 16.08 СЗ 1 19 км н/о +26.4 +21.8 76 +34 +34 очень
душно
1004.8 1002.4
00 17.08 З 1 20 км н/о +28.5 +22.0 68 +37 +37 очень
душно
1004.8 1002.4 +23.2
01 17.08 В 3 19 км н/о +29.0 +22.5 68 +38 +38 очень
душно
1004.8 1002.4
02 17.08 В 3 8000 м дым н/о +30.4 +23.1 65 +41 +41 опасность
перегрева
1004.6 1002.3
03 17.08 В 3 13 км н/о +30.1 +23.1 66 +40 +40 очень
душно
1004.5 1002.2
04 17.08 В 4 16 км н/о +30.0 +23.2 67 +40 +40 очень
душно
1004.5 1002.2
05 17.08 В 3 13 км н/о +29.9 +23.1 67 +40 +40 очень
душно
1004.2 1001.9
06 17.08 В 3 9000 м дым н/о +30.3 +24.5 71 +43 +43 опасность
перегрева
1004.0 1001.7
07 17.08 В 3 14 км н/о +29.7 +23.6 70 +41 +41 опасность
перегрева
1004.1 1001.8
08 17.08 В 3 15 км н/о +28.9 +23.6 73 +39 +39 очень
душно
1004.1 1001.7
09 17.08 ЮВ 2 15 км н/о +28.3 +23.4 75 +38 +38 очень
душно
1004.4 1002.0
10 17.08 СЗ 1 17 км н/о +28.0 +23.2 75 +38 +38 очень
душно
1004.6 1002.2

 

Местоположение метеостанции Нобеока (Япония): широта 32.58 долгота 131.65 высота над уровнем моря 21 м.

В архиве по умолчанию представлена погода в Нобеоке за последнюю неделю. Архивные данные за месяц целиком и за предыдущие месяцы, начиная с января 2011 года, Вы можете получить, выбрав интересующий диапазон дат из раскрывающегося списка и нажав кнопку "Ввод!".


*Определитесь, кто Вы:
робот инопланетянин человек

Внимание! Время в таблицах - всемирное. Для получения местного времени необходимо прибавить поправку, которая равна 9 ч.

Смотрите также архив погоды в соседних городах и на ближайших метеорологических станциях:

Погода на Асо (Япония) (65 км)
Погода в Оите (Япония) (72 км)
Погода в Миядзаки (Япония) (76 км)
Погода в Хитоёси (Япония) (94 км)
Погода в Кумамото (Япония) (94 км)
Погода в Сукумо (Япония) (105 км)
Погода в Хите (Япония) (106 км)
Погода в Мияконодзё (Япония) (109 км)
Погода в Увадзиме (Япония) (111 км)
Погода в Абурацу (Япония) (114 км)

Пояснения к столбцам:

Ветер - указаны скорость ветра в м/с - средняя за 10 мин, порывы в срок и между сроками (в фигурных скобках) и направление, откуда дует ветер: С - северный, СВ - северо-восточный, В - восточный, ЮВ - юго-восточный, Ю - южный, ЮЗ - юго-западный, З - западный, СЗ - северо-западный.
Видимость - горизонтальная дальность видимости в метрах или километрах. При видимости от 1 до 10 км при отсутствии осадков обычно наблюдается дымка, при ухудшении видимости до 1 км и менее - туман. В сухую погоду видимость может ухудшаться дымом, пылью или мглою.
Явления - указаны атмосферные явления, наблюдавшиеся в срок или в последний час перед сроком; фигурными скобками обозначены явления, наблюдавшиеся между сроками (за 1-3 часа до срока); квадратными скобками обозначены град или гололедные отложения с указанием их диаметра в мм.
Облачность - указаны через наклонную черту общая и нижняя облачность в баллах и высота нижней границы облаков в метрах; квадратными скобками обозначены формы облаков: Ci - перистые, Cs - перисто-слоистые, Cc - перисто-кучевые, Ac - высококучевые, As - высокослоистые, Sc - слоисто-кучевые, Ns - слоисто-дождевые, Cu - кучевые, Cb - кучево-дождевые. Подробнее классификацию облаков см. в Атласе облаков (PDF).
T - Температура воздуха - температура, измеренная на высоте 2 м над землей.
Td - Температура точки росы - температура, при понижении до которой содержащийся в воздухе водяной пар достигнет насыщения.
f - Относительная влажность воздуха - влажноcть воздуха, измеренная на высоте 2 м над землей.
Te - Эффективная температура - температура, которую ощущает одетый по сезону человек в тени. Характеристика душности погоды. При расчете учитывается влияние влажности воздуха и скорости ветра на теплоощущения человека.
Tes - Эффективная температура на солнце - температура, которую ощущает человек, с поправкой на солнечный нагрев. Характеристика знойности погоды. Зависит от высоты солнца над горизонтом, облачности и скорости ветра. Ночью, в пасмурную погоду, а также при ветре 12 м/с и более поправка равна нулю.
P - Атмосферное давление - приведенное к уровню моря атмосферное давление.
Po - Атмосферное давление - измеренное на уровне метеостанции атмосферное давление.
Tmin - Минимальная температура - минимум температуры воздуха на высоте 2 м над землей.
Tmax - Максимальная температура - максимум температуры воздуха на высоте 2 м над землей.
R - Количество осадков - Количество выпавших осадков за период времени, мм. При наведении курсора мыши на число - период времени, за который выпало указанное количество осадков.
R24 - Количество осадков - Количество выпавших осадков за 24 часа, мм.
S - Снежный покров - Высота снежного покрова, см. При наведении курсора мыши на число - состояние снежного покрова и степень покрытия местности в баллах.